Location: Newark
(43.4306°N, 0.3089°E)
Time: 20:40:21
(UTC+00:00)

Vanguard 3 - Pass Details

Date: 27 August 2019
Orbit: 508 x 3262 km, 33.3° (Epoch: 13 October)

Event Time Altitude Azimuth Distance (km) Brightness Sun altitude
Rises 16:50:55 0° 250° (WSW) 5,332 12.7 19.4°
Reaches altitude 10° 16:55:26 10° 243° (WSW) 3,841 12.1 18.6°
Maximum altitude 17:03:31 35° 182° (S) 1,648 9.0 17.1°
Drops below altitude 10° 17:08:31 10° 117° (ESE) 2,352 9.1 16.2°
Sets 17:10:39 0° 107° (ESE) 3,066 9.5 15.8°
